• In Switzerland
  • List of Countries
  • For 7 days
  • Water Temperature
  • Satellite Maps
  • Weather Map
  • Weather Widgets
  • user-avatar
    Login

    Hourly Weather Ryanzya

    Today, 26 September, Wednesday

    Time Temperature Precipitation Wind Pressure Humidity
    00:00 +6°C° 0 mm 4 mps 746 mmHg 79%
    01:00 +6°C° 0 mm 4 mps 746 mmHg 81%
    02:00 +6°C° 0 mm 4 mps 747 mmHg 82%
    03:00 +5°C° 0 mm 4 mps 747 mmHg 83%
    04:00 +5°C° 0 mm 4 mps 748 mmHg 84%
    05:00 +4°C° 0 mm 3 mps 749 mmHg 86%
    06:00 +4°C° 0 mm 3 mps 749 mmHg 88%
    07:00 +5°C° 0 mm 3 mps 750 mmHg 83%
    08:00 +6°C° 0 mm 4 mps 750 mmHg 79%
    09:00 +6°C° 0 mm 4 mps 751 mmHg 74%
    10:00 +7°C° 0 mm 4 mps 751 mmHg 68%
    11:00 +8°C° 0 mm 4 mps 752 mmHg 63%
    12:00 +10°C° 0 mm 4 mps 752 mmHg 57%
    13:00 +10°C° 0 mm 4 mps 752 mmHg 56%
    14:00 +10°C° 0 mm 4 mps 753 mmHg 55%
    15:00 +10°C° 0 mm 4 mps 753 mmHg 53%
    16:00 +10°C° 0 mm 3 mps 753 mmHg 57%
    17:00 +9°C° 0 mm 3 mps 753 mmHg 60%
    18:00 +8°C° 0 mm 2 mps 753 mmHg 63%
    19:00 +7°C° 0 mm 2 mps 753 mmHg 65%
    20:00 +6°C° 0 mm 2 mps 753 mmHg 68%
    21:00 +4°C° 0 mm 3 mps 753 mmHg 71%
    22:00 +4°C° 0 mm 3 mps 752 mmHg 71%
    23:00 +4°C° 0 mm 3 mps 752 mmHg 71%

    Tomorrow, 27 September, Thursday

    Time Temperature Precipitation Wind Pressure Humidity
    00:00 +4°C° 0 mm 4 mps 751 mmHg 72%
    01:00 +4°C° 0 mm 4 mps 751 mmHg 70%
    02:00 +3°C° 0 mm 5 mps 750 mmHg 69%
    03:00 +4°C° 0 mm 6 mps 749 mmHg 67%
    04:00 +4°C° 0 mm 6 mps 748 mmHg 66%
    05:00 +4°C° 0 mm 7 mps 747 mmHg 64%
    06:00 +5°C° 0 mm 7 mps 746 mmHg 63%
    07:00 +4°C° 0.7 mm 8 mps 745 mmHg 67%
    08:00 +4°C° 0.7 mm 8 mps 745 mmHg 70%
    09:00 +3°C° 0.7 mm 9 mps 744 mmHg 74%
    10:00 +3°C° 1.4 mm 9 mps 743 mmHg 77%
    11:00 +3°C° 1.4 mm 9 mps 743 mmHg 79%
    12:00 +3°C° 1.4 mm 9 mps 742 mmHg 82%
    13:00 +5°C° 0.9 mm 8 mps 742 mmHg 83%
    14:00 +5°C° 0.9 mm 8 mps 741 mmHg 85%
    15:00 +6°C° 0.9 mm 7 mps 741 mmHg 86%
    16:00 +6°C° 0.3 mm 7 mps 741 mmHg 84%
    17:00 +7°C° 0.3 mm 6 mps 742 mmHg 82%
    18:00 +8°C° 0.3 mm 6 mps 742 mmHg 80%
    19:00 +7°C° 0.1 mm 5 mps 742 mmHg 82%
    20:00 +6°C° 0.1 mm 5 mps 743 mmHg 83%
    21:00 +6°C° 0.1 mm 4 mps 743 mmHg 84%
    22:00 +6°C° 0 mm 4 mps 743 mmHg 84%
    23:00 +5°C° 0 mm 4 mps 744 mmHg 85%

    Day after tomorrow, 28 September, Friday

    Time Temperature Precipitation Wind Pressure Humidity
    00:00 +5°C° 0 mm 4 mps 744 mmHg 86%
    01:00 +5°C° 0 mm 4 mps 744 mmHg 87%
    02:00 +5°C° 0 mm 4 mps 744 mmHg 89%
    03:00 +5°C° 0 mm 4 mps 744 mmHg 90%
    04:00 +5°C° 0 mm 4 mps 744 mmHg 91%
    05:00 +5°C° 0 mm 4 mps 744 mmHg 92%
    06:00 +5°C° 0 mm 4 mps 743 mmHg 92%
    07:00 +6°C° 0 mm 5 mps 743 mmHg 87%
    08:00 +7°C° 0 mm 6 mps 743 mmHg 81%
    09:00 +9°C° 0 mm 8 mps 742 mmHg 76%
    10:00 +10°C° 0 mm 8 mps 742 mmHg 72%
    11:00 +12°C° 0 mm 9 mps 741 mmHg 68%
    12:00 +13°C° 0 mm 10 mps 741 mmHg 65%
    13:00 +13°C° 0 mm 9 mps 740 mmHg 68%
    14:00 +13°C° 0 mm 9 mps 740 mmHg 71%
    15:00 +12°C° 0 mm 9 mps 740 mmHg 74%
    16:00 +12°C° 0 mm 8 mps 740 mmHg 75%
    17:00 +12°C° 0 mm 8 mps 740 mmHg 76%
    18:00 +12°C° 0 mm 8 mps 739 mmHg 77%
    19:00 +12°C° 0.6 mm 8 mps 740 mmHg 79%
    20:00 +11°C° 0.6 mm 7 mps 741 mmHg 82%
    21:00 +11°C° 0.6 mm 6 mps 741 mmHg 85%
    22:00 +9°C° 0.1 mm 5 mps 742 mmHg 85%
    23:00 +7°C° 0.1 mm 4 mps 743 mmHg 85%

    29 September, Saturday

    Time Temperature Precipitation Wind Pressure Humidity
    00:00 +5°C° 0.1 mm 4 mps 744 mmHg 85%
    01:00 +5°C° 0 mm 3 mps 745 mmHg 86%
    02:00 +4°C° 0 mm 3 mps 746 mmHg 88%
    03:00 +4°C° 0 mm 2 mps 747 mmHg 89%
    04:00 +4°C° 0 mm 2 mps 747 mmHg 89%
    05:00 +3°C° 0 mm 2 mps 748 mmHg 90%
    06:00 +3°C° 0 mm 2 mps 748 mmHg 90%
    07:00 +4°C° 0 mm 2 mps 749 mmHg 84%
    08:00 +6°C° 0 mm 2 mps 749 mmHg 78%
    09:00 +7°C° 0 mm 3 mps 750 mmHg 72%
    10:00 +8°C° 0 mm 3 mps 750 mmHg 65%
    11:00 +10°C° 0 mm 3 mps 750 mmHg 59%
    12:00 +11°C° 0 mm 3 mps 751 mmHg 53%
    13:00 +11°C° 0 mm 3 mps 751 mmHg 52%
    14:00 +11°C° 0 mm 3 mps 751 mmHg 51%
    15:00 +12°C° 0 mm 3 mps 751 mmHg 50%
    16:00 +12°C° 0 mm 2 mps 751 mmHg 55%
    17:00 +10°C° 0 mm 2 mps 751 mmHg 59%
    18:00 +9°C° 0 mm 1 mps 751 mmHg 63%
    19:00 +9°C° 0 mm 1 mps 752 mmHg 63%
    20:00 +9°C° 0 mm 1 mps 752 mmHg 63%
    21:00 +8°C° 0 mm 1 mps 752 mmHg 63%
    22:00 +8°C° 0 mm 1 mps 753 mmHg 62%
    23:00 +8°C° 0 mm 1 mps 753 mmHg 61%

    30 September, Sunday

    Time Temperature Precipitation Wind Pressure Humidity
    00:00 +6°C° 0 mm 2 mps 753 mmHg 61%
    01:00 +6°C° 0 mm 1 mps 753 mmHg 63%
    02:00 +5°C° 0 mm 1 mps 754 mmHg 65%
    03:00 +5°C° 0 mm 1 mps 754 mmHg 66%
    04:00 +4°C° 0 mm 1 mps 754 mmHg 68%
    05:00 +4°C° 0 mm 1 mps 754 mmHg 69%
    06:00 +3°C° 0 mm 1 mps 754 mmHg 70%
    07:00 +5°C° 0 mm 1 mps 755 mmHg 65%
    08:00 +7°C° 0 mm 1 mps 755 mmHg 60%
    09:00 +8°C° 0 mm 1 mps 755 mmHg 54%
    10:00 +9°C° 0 mm 1 mps 755 mmHg 50%
    11:00 +10°C° 0 mm 1 mps 755 mmHg 46%
    12:00 +12°C° 0 mm 1 mps 755 mmHg 42%
    13:00 +12°C° 0 mm 2 mps 755 mmHg 42%
    14:00 +12°C° 0 mm 2 mps 755 mmHg 41%
    15:00 +12°C° 0 mm 2 mps 755 mmHg 40%
    16:00 +10°C° 0 mm 2 mps 755 mmHg 45%
    17:00 +9°C° 0 mm 1 mps 755 mmHg 50%
    18:00 +8°C° 0 mm 1 mps 755 mmHg 55%
    19:00 +8°C° 0 mm 1 mps 755 mmHg 56%
    20:00 +7°C° 0 mm 1 mps 755 mmHg 58%
    21:00 +7°C° 0 mm 1 mps 755 mmHg 59%
    22:00 +6°C° 0 mm 1 mps 755 mmHg 60%
    23:00 +5°C° 0 mm 2 mps 755 mmHg 61%

    1 October, Monday

    Time Temperature Precipitation Wind Pressure Humidity
    00:00 +5°C° 0 mm 2 mps 755 mmHg 63%
    01:00 +5°C° 0 mm 2 mps 754 mmHg 64%
    02:00 +4°C° 0 mm 2 mps 754 mmHg 66%
    03:00 +4°C° 0 mm 2 mps 754 mmHg 67%
    04:00 +4°C° 0 mm 2 mps 754 mmHg 69%
    05:00 +4°C° 0 mm 2 mps 754 mmHg 71%
    06:00 +4°C° 0 mm 2 mps 754 mmHg 73%
    07:00 +4°C° 0 mm 3 mps 754 mmHg 70%
    08:00 +7°C° 0 mm 3 mps 754 mmHg 67%
    09:00 +8°C° 0 mm 3 mps 754 mmHg 64%
    10:00 +10°C° 0 mm 4 mps 754 mmHg 60%
    11:00 +11°C° 0 mm 4 mps 754 mmHg 55%
    12:00 +13°C° 0 mm 5 mps 754 mmHg 51%
    13:00 +13°C° 0 mm 5 mps 753 mmHg 50%
    14:00 +13°C° 0 mm 5 mps 753 mmHg 49%
    15:00 +13°C° 0 mm 4 mps 753 mmHg 48%
    16:00 +12°C° 0 mm 4 mps 753 mmHg 54%
    17:00 +11°C° 0 mm 3 mps 753 mmHg 60%
    18:00 +9°C° 0 mm 2 mps 753 mmHg 66%
    19:00 +9°C° 0 mm 2 mps 753 mmHg 68%
    20:00 +8°C° 0 mm 2 mps 753 mmHg 71%
    21:00 +7°C° 0 mm 2 mps 753 mmHg 73%
    22:00 +7°C° 0 mm 2 mps 753 mmHg 74%
    23:00 +7°C° 0 mm 2 mps 753 mmHg 75%
    Show more